Regional Weather Roundup
Issued by NWS

Home | Current Version | Previous Version | Text Only | Print | Product List | Glossary Off
Versions: 1 2 3 4 5 6 7 8 9 10 11 12 13 14 15 16 17 18 19 20 21 22 23 24 25 26 27 28 29 30 31 32 33 34 35 36 37 38 39 40 41 42 43 44 45 46 47 48 49 50

184
ASUS43 KLMK 061210
RWRKY
KENTUCKY REGIONAL WEATHER ROUNDUP
NATIONAL WEATHER SERVICE LOUISVILLE KY
800 AM EDT FRI MAY 06 2016

NOTE "FAIR" INDICATES FEW OR NO CLOUDS BELOW 12,000 FEET
WITH NO SIGNIFICANT WEATHER AND/OR OBSTRUCTIONS TO VISIBILITY.

KYZ001>023-026-027-061>063-070>075-061300-
WESTERN AND SOUTH CENTRAL KENTUCKY

CITY           SKY/WX    TMP DP  RH WIND       PRES   REMARKS
PADUCAH        SUNNY     48  44  86 SW3       30.05R
HENDERSON      MOSUNNY   48  43  81 CALM      30.03R
OWENSBORO      SUNNY     49  46  89 CALM      30.03R
HOPKINSVILLE   SUNNY     49  45  86 W5        30.03R
BOWLING GREEN  SUNNY     50  45  83 NW3       30.01R
GLASGOW        SUNNY     44  44 100 CALM      29.99R FOG
$$

KYZ024-025-028>034-038-045-046-053-061300-
NORTH CENTRAL KENTUCKY

CITY           SKY/WX    TMP DP  RH WIND       PRES   REMARKS
LOUISVILLE/SDF MOSUNNY   51  44  77 CALM      29.99R
LOUISVILLE/LOU SUNNY     50  44  80 CALM      29.99R
FORT KNOX      SUNNY     47  43  85 NW6       29.98R
$$

KYZ035>037-039>044-047>052-055>060-089>105-061300-
NORTHEAST KENTUCKY

CITY           SKY/WX    TMP DP  RH WIND       PRES   REMARKS
LEXINGTON      MOSUNNY   49  46  90 NW6       29.96R
COVINGTON      MOSUNNY   51  43  74 N7        29.96R
FRANKFORT        N/A    N/A N/A N/A MISG      29.95R
$$

KYZ054-064>069-076>088-106>120-061300-
SOUTHEAST KENTUCKY

CITY           SKY/WX    TMP DP  RH WIND       PRES   REMARKS
JACKSON        SUNNY     47  40  76 N7        29.91R
LONDON         SUNNY     47  44  90 CALM      29.94R
SOMERSET       SUNNY     45  45 100 CALM      29.97R FOG
MIDDLESBORO    CLOUDY    49  45  85 CALM      29.94R
MONTICELLO     SUNNY     48  47  96 NW9       29.99R
$$





USA.gov is the U.S. government's official web portal to all federal, state and local government web resources and services.